User: anonymous   Login
Location: Unspecified
(0.0000°N, 0.0000°E)
Time: 02:03:58
(UTC+01:00)
Language:

ARIANE 5 R/B - Orbit

View from above orbital plane
View from above orbital plane
View from above satellite
View from above satellite

Ground track
Ground track

The orbit data is extracted from the following two-line orbital elements,

1 28787U 05028B   14296.16993258 -.00000072  00000-0  97356-3 0  5597
2 28787 007.1923 046.6032 7172703 192.1108 020.3700 02.26545606 76164
Epoch (UTC): 23 October 2014 04:04:42
Eccentricity: 0.7172703
inclination: 7.1923°
perigee height: 545 km
apogee height: 35675 km
right ascension of ascending node: 46.6032°
argument of perigee: 192.1108°
revolutions per day: 2.26545606
mean anomaly at epoch: 20.3700°
orbit number at epoch: 7616

The dashed part of the orbit path shows where the satellite is in the earth's shadow,  

DLR